軌道要素
Epoch 2017 Oct. 14.0 TT = JDT 2458040.5
T 2017 Oct. 20.42504 TT MPCW
q 2.4193196 (2000.0) P Q
n 0.00773412 Peri. 96.38257 +0.13218361 -0.93842330
a 25.3237903 Node 336.62276 +0.21959185 +0.34174845
e 0.9044646 Incl. 53.55927 +0.96659553 +0.05069235
P 127
From 113 observations 2018 Jan. 6-June 11, mean residual 0".5.
|